Vancouver, British Columbia

5:21 AM PDT on June 29, 2017 (GMT -0700)
Vancouver International Airport

Weather History for CYVR - April, 2014

Change the Weather History Date:

Wednesday, April 9, 2014

  Actual Average Record
Temperature  
Mean Temperature 48 °F -  
Max Temperature 52 °F 57 °F 59 °F (2004)
Min Temperature 45 °F 42 °F 35 °F (1999)
Degree Days  
Heating Degree Days 16    
Moisture  
Dew Point 40 °F    
Average Humidity 70    
Maximum Humidity 82    
Minimum Humidity 45    
Precipitation  
Precipitation 0.00 in 0.09 in - ()
Sea Level Pressure  
Sea Level Pressure 30.22 in    
Wind  
Wind Speed 13 mph ()    
Max Wind Speed 22 mph    
Max Gust Speed 29 mph    
Visibility 15.0 miles    
Events      
Averages and records for this station are not official NWS values.
T = Trace of Precipitation, MM = Missing Value Source: Averaged Metar Reports

Daily Weather History Graph

Daily Weather History Graph

Search for Another Location

Airport or City:

Trip Planner

Search our weather history database for the weather conditions in past years. The results will help you decide how hot, cold, wet, or windy it might be!

Date:

Astronomy

Apr. 09, 2014 Rise Set
Actual Time 6:33 AM PDT 7:56 PM PDT
Civil Twilight 6:00 AM PDT 8:29 PM PDT
Nautical Twilight 5:20 AM PDT 9:09 PM PDT
Astronomical Twilight 4:37 AM PDT 9:52 PM PDT
Moon 2:24 PM PDT (4/9) 3:52 AM PDT (4/9)
Length of Visible Light 14h 28m
Length of Day
13h 23m
Waxing Gibbous, 72% of the Moon is Illuminated
Apr 9
Waxing Gibbous
Apr 15
Full
Apr 22
Last Quarter
Apr 28
New
May 6
First Quarter

Hourly Weather History & Observations

Time (PDT) Temp. Windchill Dew Point Humidity Pressure Visibility Wind Dir Wind Speed Gust Speed Precip Events Conditions
12:00 AM 48.2 °F - 41.0 °F 76% 30.10 in 15.0 mi West 20.7 mph - N/A   Clear
1:00 AM 48.2 °F - 39.2 °F 71% 30.13 in 15.0 mi West 19.6 mph - N/A   Clear
2:00 AM 48.2 °F - 41.0 °F 76% 30.14 in 15.0 mi West 21.9 mph - N/A   Clear
3:00 AM 46.4 °F 38.5 °F 41.0 °F 81% 30.16 in 15.0 mi West 21.9 mph 28.8 mph N/A   Clear
4:00 AM 46.4 °F 39.2 °F 39.2 °F 76% 30.18 in 15.0 mi West 18.4 mph - N/A   Clear
5:00 AM 46 °F - 38 °F 67% 30.19 in 15 mi West 15.0 mph - -   Clear
5:00 AM 46.4 °F 40.1 °F 39.2 °F 76% 30.19 in 15.0 mi West 15.0 mph - N/A   Partly Cloudy
6:00 AM 44.6 °F 38.4 °F 39.2 °F 81% 30.20 in 15.0 mi West 12.7 mph - N/A   Partly Cloudy
7:00 AM 46.4 °F 39.2 °F 41.0 °F 81% 30.22 in 30.0 mi WNW 18.4 mph - N/A   Overcast
8:00 AM 46.4 °F 39.2 °F 41.0 °F 81% 30.23 in 30.0 mi West 18.4 mph - N/A   Overcast
9:00 AM 48.2 °F - 42.8 °F 82% 30.23 in 30.0 mi West 15.0 mph - N/A   Mostly Cloudy
10:00 AM 50.0 °F - 42.8 °F 76% 30.24 in 30.0 mi WNW 15.0 mph - N/A   Overcast
11:00 AM 50 °F - 42 °F 67% 30.27 in 28 mi WNW 15.0 mph - -   Scattered Clouds
11:00 AM 50.0 °F - 42.8 °F 76% 30.26 in 30.0 mi West 17.3 mph - N/A   Scattered Clouds
12:00 PM 50.0 °F - 42.8 °F 76% 30.27 in 30.0 mi West 13.8 mph - N/A   Scattered Clouds
1:00 PM 51.8 °F - 41.0 °F 67% 30.27 in 30.0 mi WSW 11.5 mph - N/A   Scattered Clouds
2:00 PM 51.8 °F - 41.0 °F 67% 30.27 in 30.0 mi SW 8.1 mph - N/A   Scattered Clouds
3:00 PM 51.8 °F - 39.2 °F 62% 30.27 in 30.0 mi WSW 6.9 mph - N/A   Scattered Clouds
4:00 PM 51.8 °F - 42.8 °F 71% 30.26 in 30.0 mi SW 8.1 mph - N/A   Scattered Clouds
5:00 PM 52 °F - 37 °F 45% 30.25 in 28 mi SSW 10.4 mph - -   Overcast
5:00 PM 51.8 °F - 37.4 °F 58% 30.25 in 30.0 mi SSW 10.4 mph - N/A   Overcast
6:00 PM 51.8 °F - 35.6 °F 54% 30.23 in 30.0 mi South 9.2 mph - N/A   Overcast
7:00 PM 51.8 °F - 37.4 °F 58% 30.22 in 30.0 mi South 8.1 mph - N/A   Overcast
8:00 PM 48.2 °F - 39.2 °F 71% 30.22 in 30.0 mi SSW 5.8 mph - N/A   Overcast
9:00 PM 48.2 °F - 37.4 °F 66% 30.23 in 30.0 mi NNW 4.6 mph - N/A   Mostly Cloudy
10:00 PM 48.2 °F - 39.2 °F 71% 30.23 in 30.0 mi NNE 4.6 mph - N/A   Scattered Clouds
11:00 PM 46 °F - 37 °F 63% 30.23 in 28 mi NE 3.5 mph - -   Scattered Clouds
11:00 PM 46.4 °F - 37.4 °F 71% 30.23 in 30.0 mi NE 2.3 mph - N/A   Partly Cloudy